�N����,����,�~����,�C��,���x,�C��,����,���ϕ���,�ő�u�ԕ���,�ő厞����,���˗�,�I�_���x,�n�����x,�ő啗���N��,DTYPE
"19/10/28","00:10",0.0,13.7,92.3,1011.4,327.1,1.7,2.5,332.4,0.00,12.5,17.9,"00:01:44",1
"19/10/28","00:20",0.0,13.7,92.5,1011.6,324.4,1.8,3.2,326.0,0.00,12.5,17.9,"00:14:24",1
"19/10/28","00:30",0.0,13.7,92.5,1011.6,328.2,1.6,2.5,325.0,0.00,12.5,17.8,"00:24:16",1
"19/10/28","00:40",0.0,13.6,92.7,1011.9,324.8,1.6,2.5,343.2,0.00,12.5,17.9,"00:33:36",1
"19/10/28","00:50",0.0,13.6,92.7,1011.9,325.6,1.5,2.4,347.3,0.00,12.5,17.8,"00:48:24",1
"19/10/28","01:00",0.0,13.6,92.9,1012.1,326.3,1.8,2.9,338.1,0.00,12.5,17.9,"00:59:36",1
"19/10/28","01:10",0.0,13.7,92.9,1012.3,320.8,2.1,3.9,335.0,0.00,12.6,17.7,"01:07:28",1
"19/10/28","01:20",0.0,13.8,92.8,1012.3,325.5,2.3,4.0,337.7,0.00,12.7,17.8,"01:14:56",1
"19/10/28","01:30",0.0,13.8,92.8,1012.6,331.2,2.5,4.1,340.1,0.00,12.7,17.7,"01:24:56",1
"19/10/28","01:40",0.0,13.7,92.8,1012.3,332.4,1.7,4.1,343.5,0.00,12.6,17.6,"01:31:20",1
"19/10/28","01:50",0.0,13.7,92.8,1012.1,339.0,1.2,2.2,339.5,0.00,12.6,17.6,"01:45:04",1
"19/10/28","02:00",0.0,13.5,92.9,1012.3,320.3,1.8,2.9,318.6,0.00,12.4,17.7,"01:53:52",1
"19/10/28","02:10",0.0,13.5,93.0,1012.3,319.8,2.0,3.4,327.2,0.00,12.4,17.8,"02:00:48",1
"19/10/28","02:20",0.0,13.5,93.0,1012.3,315.1,1.8,2.8,333.0,0.00,12.4,17.8,"02:15:04",1
"19/10/28","02:30",0.0,13.7,93.0,1012.3,321.6,1.7,2.6,316.1,0.00,12.6,17.6,"02:20:48",1
"19/10/28","02:40",0.0,13.6,93.0,1012.1,326.4,2.0,2.9,324.3,0.00,12.5,17.5,"02:36:24",1
"19/10/28","02:50",0.0,13.5,93.0,1011.9,323.5,1.8,2.8,335.7,0.00,12.4,17.6,"02:40:24",1
"19/10/28","03:00",0.0,13.4,93.1,1012.1,324.4,2.0,3.3,319.3,0.00,12.3,17.7,"02:58:40",1
"19/10/28","03:10",0.0,13.6,93.1,1012.1,325.7,2.3,3.9,333.3,0.00,12.5,17.7,"03:07:16",1
"19/10/28","03:20",0.0,13.7,92.9,1011.9,324.2,2.5,4.5,324.1,0.00,12.6,17.5,"03:12:48",1
"19/10/28","03:30",0.0,13.6,92.8,1012.1,328.7,2.1,5.2,336.0,0.00,12.5,17.6,"03:21:20",1
"19/10/28","03:40",0.0,13.5,92.8,1012.1,331.6,1.5,2.6,329.3,0.00,12.4,17.5,"03:30:08",1
"19/10/28","03:50",0.0,13.3,92.8,1012.1,311.2,1.6,3.1,332.0,0.00,12.2,17.5,"03:44:32",1
"19/10/28","04:00",0.0,13.3,92.8,1012.1,321.7,1.8,4.3,312.6,0.00,12.2,17.5,"03:53:04",1
"19/10/28","04:10",0.0,13.3,92.8,1012.1,324.7,1.8,3.4,306.9,0.00,12.2,17.4,"04:04:34",1
"19/10/28","04:20",0.0,13.3,92.8,1012.1,328.4,1.8,2.9,345.4,0.00,12.2,17.6,"04:11:36",1
"19/10/28","04:30",0.0,13.3,92.8,1012.1,330.5,2.0,2.7,326.7,0.00,12.2,17.5,"04:23:14",1
"19/10/28","04:40",0.0,13.2,92.8,1012.1,324.1,1.7,3.3,317.6,0.00,12.1,17.5,"04:34:42",1
"19/10/28","04:50",0.0,13.1,92.8,1012.3,329.5,1.5,2.6,348.8,0.00,12.0,17.5,"04:41:44",1
"19/10/28","05:00",0.0,13.0,92.9,1012.6,324.7,1.8,4.3,323.0,0.00,11.9,17.5,"04:55:16",1
"19/10/28","05:10",0.0,13.0,92.9,1012.6,325.1,2.0,4.1,336.7,0.00,11.9,17.5,"05:08:08",1
"19/10/28","05:20",0.0,13.0,93.0,1012.6,322.8,2.3,4.7,324.7,0.00,11.9,17.3,"05:14:06",1
"19/10/28","05:30",0.0,13.0,93.0,1012.8,322.6,2.1,3.9,318.4,0.00,11.9,17.3,"05:25:12",1
"19/10/28","05:40",0.0,13.0,93.0,1012.8,326.2,2.3,3.7,324.2,0.00,11.9,17.3,"05:35:02",1
"19/10/28","05:50",0.0,13.0,93.1,1013.3,324.7,2.3,4.9,319.0,0.00,12.0,17.3,"05:49:56",1
"19/10/28","06:00",0.0,13.1,93.1,1013.0,322.6,3.2,4.7,329.6,0.00,12.1,17.4,"05:59:54",1
"19/10/28","06:10",0.0,13.0,93.1,1012.6,320.6,3.0,5.4,324.6,0.00,12.0,17.2,"06:06:26",1
"19/10/28","06:20",0.0,12.9,93.2,1012.8,322.2,3.2,6.0,317.0,0.00,11.9,17.2,"06:15:20",1
"19/10/28","06:30",0.0,12.8,93.3,1013.0,323.9,3.0,5.6,332.3,0.00,11.8,17.0,"06:27:08",1
"19/10/28","06:40",0.0,12.6,93.4,1012.8,330.4,2.8,5.8,341.8,0.00,11.6,17.1,"06:32:20",1
"19/10/28","06:50",0.0,12.5,93.6,1013.0,330.2,3.0,5.2,332.7,0.00,11.5,17.2,"06:40:46",1
"19/10/28","07:00",0.0,12.5,93.7,1013.3,329.9,2.5,4.2,327.1,0.00,11.6,17.0,"06:57:54",1
"19/10/28","07:10",0.0,12.4,93.9,1013.0,321.6,2.2,4.0,322.2,0.00,11.5,17.0,"07:06:40",1
"19/10/28","07:20",0.0,12.5,94.1,1013.0,301.3,1.3,3.1,325.4,0.00,11.6,16.9,"07:12:14",1
"19/10/28","07:30",0.0,12.8,94.2,1013.0,295.0,1.3,2.9,328.2,0.00,11.9,17.0,"07:27:04",1
"19/10/28","07:40",0.0,13.1,94.1,1013.3,327.2,2.2,4.1,330.3,0.01,12.2,16.9,"07:34:08",1
"19/10/28","07:50",0.0,13.4,94.0,1013.5,315.4,2.2,4.1,343.3,0.02,12.5,16.9,"07:42:08",1
"19/10/28","08:00",0.0,13.6,93.8,1013.5,320.4,2.6,4.5,324.0,0.04,12.7,16.9,"07:59:04",1
"19/10/28","08:10",0.0,14.0,93.5,1014.0,325.1,2.6,4.8,324.9,0.05,13.0,16.9,"08:03:12",1
"19/10/28","08:20",0.0,14.3,93.2,1014.2,329.7,2.5,4.1,326.3,0.08,13.3,17.0,"08:16:24",1
"19/10/28","08:30",0.0,14.6,92.8,1014.2,326.6,2.5,4.5,332.2,0.09,13.5,17.1,"08:22:40",1
"19/10/28","08:40",0.0,14.8,91.9,1014.5,326.8,2.5,4.2,332.4,0.12,13.5,17.0,"08:37:04",1
"19/10/28","08:50",0.0,15.4,90.9,1014.5,330.3,1.7,3.5,347.3,0.13,14.0,17.2,"08:40:02",1
"19/10/28","09:00",0.0,15.9,89.9,1014.2,336.1,2.0,3.9,344.1,0.18,14.3,17.4,"08:58:40",1
"19/10/28","09:10",0.0,16.6,88.2,1014.5,316.1,1.3,3.2,335.5,0.20,14.7,17.4,"09:00:56",1
"19/10/28","09:20",0.0,16.9,85.9,1014.5,292.5,1.2,3.1,340.5,0.23,14.6,17.5,"09:17:04",1
"19/10/28","09:30",0.0,17.5,84.0,1014.5,278.1,1.1,3.2,325.5,0.25,14.8,17.4,"09:21:20",1
"19/10/28","09:40",0.0,17.5,81.5,1014.0,289.3,1.0,2.6,338.1,0.27,14.3,17.7,"09:38:40",1
"19/10/28","09:50",0.0,17.8,79.6,1014.2,325.5,1.5,2.9,344.0,0.30,14.3,17.8,"09:43:28",1
"19/10/28","10:00",0.0,18.5,77.9,1013.5,292.7,0.8,2.5,343.6,0.32,14.6,18.1,"09:57:36",1
"19/10/28","10:10",0.0,18.7,76.3,1014.0,299.2,1.3,3.9,338.2,0.34,14.5,18.2,"10:04:08",1
"19/10/28","10:20",0.0,19.1,74.5,1013.3,348.4,0.8,2.5,346.1,0.36,14.5,18.3,"10:11:36",1
"19/10/28","10:30",0.0,19.6,71.7,1013.5,304.4,0.8,2.8,231.4,0.38,14.4,18.7,"10:29:28",1
"19/10/28","10:40",0.0,19.7,71.0,1013.3,237.4,1.0,2.7,232.4,0.39,14.3,18.8,"10:32:08",1
"19/10/28","10:50",0.0,20.2,67.5,1013.3,168.9,0.7,1.8,149.0,0.41,14.0,19.1,"10:42:00",1
"19/10/28","11:00",0.0,20.3,63.5,1013.0,170.8,0.8,2.0,190.0,0.42,13.2,19.1,"10:53:28",1
"19/10/28","11:10",0.0,20.5,62.9,1013.0,231.8,1.2,2.8,231.2,0.44,13.2,19.2,"11:07:36",1
"19/10/28","11:20",0.0,20.7,60.2,1012.8,156.6,1.1,2.6,133.4,0.45,12.8,19.8,"11:14:32",1
"19/10/28","11:30",0.0,21.0,58.4,1012.6,202.8,1.0,2.4,237.3,0.46,12.6,19.8,"11:21:12",1
"19/10/28","11:40",0.0,21.2,57.8,1011.9,183.7,1.3,3.6,206.2,0.46,12.6,19.8,"11:37:04",1
"19/10/28","11:50",0.0,21.3,57.6,1012.1,170.8,1.5,3.5,99.4,0.47,12.6,20.2,"11:43:28",1
"19/10/28","12:00",0.0,22.0,55.4,1012.1,238.9,0.5,1.6,116.3,0.47,12.7,20.2,"11:52:08",1
"19/10/28","12:10",0.0,22.0,54.2,1011.9,176.2,1.3,3.7,206.3,0.48,12.4,20.6,"12:09:36",1
"19/10/28","12:20",0.0,21.8,55.9,1011.6,200.6,1.8,3.1,229.7,0.48,12.7,20.6,"12:13:04",1
"19/10/28","12:30",0.0,22.5,52.8,1011.6,217.7,0.7,1.8,190.4,0.47,12.4,20.7,"12:20:16",1
"19/10/28","12:40",0.0,22.6,50.7,1011.4,194.6,1.2,2.8,223.5,0.50,11.9,20.9,"12:39:12",1
"19/10/28","12:50",0.0,22.6,47.6,1010.9,177.6,1.1,2.2,203.1,0.49,11.0,21.1,"12:42:40",1
"19/10/28","13:00",0.0,22.8,48.4,1010.9,143.2,1.2,3.2,105.2,0.46,11.4,21.3,"12:54:48",1
"19/10/28","13:10",0.0,22.0,49.2,1010.7,188.2,1.5,2.9,191.6,0.35,10.9,21.5,"13:03:44",1
"19/10/28","13:20",0.0,22.4,47.3,1010.9,117.9,0.8,2.6,50.4,0.40,10.7,21.2,"13:13:52",1
"19/10/28","13:30",0.0,22.8,45.8,1010.9,193.2,0.8,1.8,197.9,0.42,10.6,21.5,"13:25:28",1
"19/10/28","13:40",0.0,22.8,47.0,1010.7,243.7,1.1,2.9,335.6,0.37,11.0,21.7,"13:39:36",1
"19/10/28","13:50",0.0,22.9,46.2,1010.4,346.8,0.8,2.0,345.3,0.31,10.8,21.8,"13:41:20",1
"19/10/28","14:00",0.0,23.1,46.8,1010.7,284.8,0.8,1.9,338.8,0.31,11.2,21.8,"13:52:08",1
"19/10/28","14:10",0.0,22.9,47.0,1010.4,221.2,1.3,3.4,195.2,0.37,11.0,21.7,"14:07:04",1
"19/10/28","14:20",0.0,23.3,44.5,1010.9,289.8,1.2,2.7,337.4,0.36,10.6,21.9,"14:19:04",1
"19/10/28","14:30",0.0,23.1,45.2,1010.7,222.2,1.6,4.0,232.1,0.38,10.6,21.8,"14:28:24",1
"19/10/28","14:40",0.0,22.8,47.3,1010.2,229.2,1.8,3.7,224.2,0.34,11.0,21.9,"14:30:32",1
"19/10/28","14:50",0.0,23.4,45.2,1010.7,274.3,1.0,2.1,315.9,0.30,10.9,22.0,"14:44:08",1
"19/10/28","15:00",0.0,23.6,44.8,1010.2,271.7,0.8,1.9,338.3,0.30,11.0,22.0,"14:51:36",1
"19/10/28","15:10",0.0,23.6,43.5,1010.2,248.0,0.8,1.9,315.3,0.27,10.5,21.8,"15:01:52",1
"19/10/28","15:20",0.0,23.0,43.6,1010.2,212.0,1.5,3.2,228.9,0.24,10.0,21.9,"15:18:08",1
"19/10/28","15:30",0.0,22.5,43.3,1010.0,238.3,1.7,3.7,225.1,0.20,9.5,22.0,"15:20:32",1
"19/10/28","15:40",0.0,22.0,46.0,1010.2,219.2,1.5,4.0,231.8,0.16,9.9,21.9,"15:30:24",1
"19/10/28","15:50",0.0,22.2,45.5,1010.7,228.7,0.7,2.2,209.3,0.16,9.9,21.9,"15:44:40",1
"19/10/28","16:00",0.0,22.1,46.3,1010.2,224.1,1.2,2.6,227.2,0.13,10.1,21.8,"15:53:12",1
"19/10/28","16:10",0.0,21.9,46.0,1010.4,234.0,1.5,3.3,228.0,0.13,9.8,21.7,"16:08:24",1
"19/10/28","16:20",0.0,21.8,45.5,1010.7,242.6,1.3,2.8,235.0,0.10,9.6,21.6,"16:15:12",1
"19/10/28","16:30",0.0,21.4,49.6,1010.7,253.0,1.3,2.6,232.9,0.08,10.5,21.5,"16:22:56",1
"19/10/28","16:40",0.0,20.8,51.3,1010.7,265.7,0.8,1.9,253.6,0.05,10.4,21.5,"16:37:20",1
"19/10/28","16:50",0.0,20.3,53.9,1010.7,275.6,1.0,2.8,237.6,0.02,10.7,21.4,"16:40:16",1
"19/10/28","17:00",0.0,19.6,58.3,1011.2,318.2,1.0,1.6,329.5,0.02,11.2,21.0,"16:56:48",1
"19/10/28","17:10",0.0,18.9,62.9,1010.9,315.6,1.1,1.9,315.2,0.01,11.7,21.1,"17:03:52",1
"19/10/28","17:20",0.0,18.3,65.9,1011.2,319.3,1.2,1.9,334.6,0.00,11.9,21.0,"17:13:12",1
"19/10/28","17:30",0.0,17.7,67.7,1010.9,315.5,1.3,2.7,324.1,0.00,11.7,21.0,"17:27:36",1
"19/10/28","17:40",0.0,17.3,68.8,1011.2,289.2,1.0,2.4,311.6,0.00,11.6,20.9,"17:30:32",1
"19/10/28","17:50",0.0,17.2,69.6,1011.4,289.6,1.0,1.7,306.1,0.00,11.6,20.8,"17:49:44",1
"19/10/28","18:00",0.0,16.8,70.4,1011.6,287.1,1.0,1.6,325.4,0.00,11.4,20.7,"17:50:16",1
"19/10/28","18:10",0.0,16.4,71.2,1011.4,280.3,1.0,1.4,327.2,0.00,11.2,20.2,"18:04:08",1
"19/10/28","18:20",0.0,16.0,72.1,1011.6,276.5,1.1,1.8,262.2,0.00,11.0,20.4,"18:17:36",1
"19/10/28","18:30",0.0,15.6,72.8,1011.4,295.0,1.0,1.9,311.3,0.00,10.8,20.1,"18:27:36",1
"19/10/28","18:40",0.0,15.3,73.5,1011.6,281.4,1.0,1.6,304.4,0.00,10.6,20.3,"18:34:00",1
"19/10/28","18:50",0.0,15.0,74.6,1011.9,279.6,1.0,1.7,271.1,0.00,10.6,19.9,"18:46:32",1
"19/10/28","19:00",0.0,14.9,76.1,1011.9,298.1,1.2,2.2,315.0,0.00,10.8,19.9,"18:58:08",1
"19/10/28","19:10",0.0,14.5,77.4,1011.9,301.4,1.2,2.1,310.9,0.00,10.6,19.7,"19:00:08",1
"19/10/28","19:20",0.0,14.2,78.6,1012.1,278.1,1.1,2.0,316.9,0.00,10.6,19.4,"19:14:24",1
"19/10/28","19:30",0.0,14.1,79.5,1012.3,280.9,1.1,1.6,275.7,0.00,10.7,19.4,"19:22:48",1
"19/10/28","19:40",0.0,14.0,80.0,1012.1,277.3,1.0,1.2,257.2,0.00,10.6,19.1,"19:30:08",1
"19/10/28","19:50",0.0,13.8,80.5,1012.3,286.6,1.1,1.6,311.4,0.00,10.5,19.0,"19:41:36",1
"19/10/28","20:00",0.0,13.6,81.0,1012.3,281.9,1.1,1.4,298.2,0.00,10.4,19.1,"19:58:18",1
"19/10/28","20:10",0.0,13.4,81.5,1012.3,288.8,1.1,1.6,337.0,0.00,10.3,19.0,"20:00:16",1
"19/10/28","20:20",0.0,13.1,82.0,1011.9,307.7,1.6,1.9,316.3,0.00,10.1,18.9,"20:19:12",1
"19/10/28","20:30",0.0,12.7,82.5,1012.1,294.9,1.3,1.9,310.8,0.00,9.8,18.7,"20:20:30",1
"19/10/28","20:40",0.0,12.7,83.1,1012.1,292.6,1.6,2.6,313.8,0.00,9.9,18.8,"20:38:58",1
"19/10/28","20:50",0.0,12.8,83.7,1012.1,299.1,1.6,2.5,311.5,0.00,10.2,18.5,"20:48:24",1
"19/10/28","21:00",0.0,12.6,84.1,1012.1,300.1,1.5,2.2,314.9,0.00,10.0,18.5,"20:59:54",1
"19/10/28","21:10",0.0,12.6,84.7,1011.9,298.4,1.7,2.2,309.6,0.00,10.1,18.2,"21:00:12",1
"19/10/28","21:20",0.0,12.7,85.1,1012.3,287.5,1.6,2.7,305.6,0.00,10.3,18.3,"21:11:16",1
"19/10/28","21:30",0.0,12.8,85.4,1012.3,298.7,1.6,2.5,312.5,0.00,10.5,18.3,"21:23:28",1
"19/10/28","21:40",0.0,12.6,85.6,1012.6,314.2,1.7,2.0,323.0,0.00,10.3,18.1,"21:31:32",1
"19/10/28","21:50",0.0,12.5,85.9,1012.8,309.7,1.7,2.7,305.9,0.00,10.2,18.3,"21:42:52",1
"19/10/28","22:00",0.0,12.5,86.3,1012.3,290.4,1.6,2.5,317.5,0.00,10.3,17.9,"21:55:04",1
"19/10/28","22:10",0.0,12.7,86.5,1012.6,283.7,1.3,2.1,273.3,0.00,10.5,18.1,"22:00:18",1
"19/10/28","22:20",0.0,12.8,86.5,1012.1,303.6,1.5,2.1,303.3,0.00,10.6,18.2,"22:15:16",1
"19/10/28","22:30",0.0,12.6,86.5,1012.6,302.0,0.8,1.8,317.1,0.00,10.4,17.8,"22:20:52",1
"19/10/28","22:40",0.0,12.4,86.9,1012.6,319.1,2.0,2.5,323.6,0.00,10.3,17.8,"22:39:42",1
"19/10/28","22:50",0.0,12.0,87.2,1012.8,302.4,1.3,2.2,326.7,0.00,10.0,17.9,"22:41:22",1
"19/10/28","23:00",0.0,12.3,87.8,1012.8,313.7,1.5,2.0,322.6,0.00,10.4,17.7,"22:55:28",1
"19/10/28","23:10",0.0,12.4,87.8,1012.6,300.6,1.3,2.0,337.9,0.00,10.5,17.7,"23:00:54",1
"19/10/28","23:20",0.0,12.4,88.2,1011.9,285.9,1.2,1.6,301.2,0.00,10.5,17.7,"23:14:18",1
"19/10/28","23:30",0.0,12.4,88.4,1012.3,305.5,1.5,2.1,321.8,0.00,10.6,17.7,"23:26:08",1
"19/10/28","23:40",0.0,12.3,88.5,1012.6,310.9,1.3,2.0,318.8,0.00,10.5,17.5,"23:30:48",1
"19/10/28","23:50",0.0,12.1,88.7,1012.8,300.0,1.3,1.9,314.9,0.00,10.3,17.6,"23:49:02",1
"19/10/28","24:00",0.0,12.0,89.0,1012.6,296.2,1.3,1.9,306.0,0.00,10.3,17.8,"23:59:42",1
